FW0229 Weather Reports


Display with metric or nautical units.
time (UTC)temp
F
wind
direction
speed
MPH
gust
MPH
rain 1hr
in
rain 24hr
in
rain mn
in
humidity
%
barometer
mb
20190320150015 48 0.0 0.0 0.00 0.00 0.00 46 1026.0
20190320145015 48 0.0 0.0 0.00 0.00 0.00 46 1025.9
20190320144015 47 0.0 0.0 0.00 0.00 0.00 49 1025.9
20190320143015 47 0.0 0.0 0.00 0.00 0.00 47 1025.7
20190320142015 46 0.0 0.0 0.00 0.00 0.00 48 1025.6
20190320141016 46 0.0 0.0 0.00 0.00 0.00 53 1025.5
20190320140017 44 0.0 0.0 0.00 0.00 0.00 55 1025.7
20190320135015 44 0.0 0.0 0.00 0.00 0.00 56 1025.9
20190320134015 43 0.0 0.0 0.00 0.00 0.00 58 1026.0
20190320133015 43 0.0 0.0 0.00 0.00 0.00 59 1025.7
20190320132015 42 0.0 0.0 0.00 0.00 0.00 61 1025.8
20190320131015 41 0.0 0.0 0.00 0.00 0.00 62 1025.7
20190320130015 41 0.0 0.0 0.00 0.00 0.00 64 1025.9
20190320125015 40 0.0 0.0 0.00 0.00 0.00 65 1025.9
20190320124015 39 0.0 0.0 0.00 0.00 0.00 66 1025.8
20190320123015 39 0.0 0.0 0.00 0.00 0.00 68 1025.7
20190320122015 39 0.0 0.0 0.00 0.00 0.00 69 1025.7
20190320121015 38 0.0 0.0 0.00 0.00 0.00 69 1025.7
20190320120015 38 0.0 0.0 0.00 0.00 0.00 71 1025.6
20190320115017 37 0.0 0.0 0.00 0.00 0.00 72 1025.4
20190320114017 37 0.0 0.0 0.00 0.00 0.00 73 1025.5
20190320113017 36 0.0 0.0 0.00 0.00 0.00 73 1025.4
20190320112017 36 0.0 0.0 0.00 0.00 0.00 72 1025.5
20190320111018 36 0.0 0.0 0.00 0.00 0.00 73 1025.4
20190320110017 36 0.0 0.0 0.00 0.00 0.00 73 1025.4
20190320105017 35 0.0 0.0 0.00 0.00 0.00 75 1025.3
20190320104017 34 0.0 0.0 0.00 0.00 0.00 76 1025.5
20190320103017 34 0.0 0.0 0.00 0.00 0.00 78 1025.4
20190320102017 33 0.0 0.0 0.00 0.00 0.00 79 1025.5
20190320101017 32 0.0 0.0 0.00 0.00 0.00 79 1025.3
20190320100016 33 0.0 0.0 0.00 0.00 0.00 78 1025.4
20190320095017 33 0.0 0.0 0.00 0.00 0.00 78 1025.4
20190320094016 33 0.0 0.0 0.00 0.00 0.00 78 1025.2
20190320093017 33 0.0 0.0 0.00 0.00 0.00 77 1025.2
20190320092017 33 0.0 0.0 0.00 0.00 0.00 77 1025.4
20190320091016 34 0.0 0.0 0.00 0.00 0.00 76 1025.4
20190320090016 34 0.0 0.0 0.00 0.00 0.00 74 1025.5
20190320085017 34 0.0 0.0 0.00 0.00 0.00 76 1025.2
20190320084016 34 0.0 0.0 0.00 0.00 0.00 76 1025.4
20190320083017 34 0.0 0.0 0.00 0.00 0.00 76 1025.4
20190320082016 35 0.0 0.0 0.00 0.00 0.00 75 1025.5
20190320081017 35 0.0 0.0 0.00 0.00 0.00 74 1025.6
20190320080017 35 0.0 0.0 0.00 0.00 0.00 71 1025.6
20190320075016 36 0.0 0.0 0.00 0.00 0.00 70 1025.8
20190320074016 37 0.0 0.0 0.00 0.00 0.00 67 1025.9
20190320073016 36 0.0 0.0 0.00 0.00 0.00 70 1026.1
20190320072016 36 0.0 0.0 0.00 0.00 0.00 68 1026.1
20190320071016 37 0.0 0.0 0.00 0.00 0.00 66 1026.1
20190320070016 38 0.0 0.0 0.00 0.00 0.00 65 1026.2
20190320065016 38 0.0 0.0 0.00 0.00 0.00 64 1026.2
20190320064016 39 0.0 0.0 0.00 0.00 0.00 60 1026.4
20190320063016 39 0.0 0.0 0.00 0.00 0.00 60 1026.3
20190320062016 39 0.0 0.0 0.00 0.00 0.00 61 1026.5
20190320061017 40 0.0 0.0 0.00 0.00 0.00 59 1026.5
20190320060016 40 0.0 0.0 0.00 0.00 0.00 59 1026.6
20190320055016 40 0.0 0.0 0.00 0.00 0.00 60 1026.6
20190320054016 40 0.0 0.0 0.00 0.00 0.00 60 1026.5
20190320053016 41 0.0 0.0 0.00 0.00 0.00 59 1026.7
20190320052016 41 0.0 0.0 0.00 0.00 0.00 59 1026.6
20190320051016 41 0.0 0.0 0.00 0.00 0.00 59 1026.6
20190320050016 41 0.0 0.0 0.00 0.00 0.00 60 1026.7
20190320045016 41 0.0 0.0 0.00 0.00 0.00 61 1026.7
20190320044016 40 0.0 0.0 0.00 0.00 0.00 64 1026.7
20190320043016 37 0.0 0.0 0.00 0.00 0.00 72 1026.9
20190320042016 35 0.0 0.0 0.00 0.00 0.00 79 1027.0
20190320041016 35 0.0 0.0 0.00 0.00 0.00 80 1027.2
20190320040016 36 0.0 0.0 0.00 0.00 0.00 80 1027.3
20190320035015 36 0.0 0.0 0.00 0.00 0.00 78 1027.4
20190320034017 36 0.0 0.0 0.00 0.00 0.00 78 1027.3
20190320033017 37 0.0 0.0 0.00 0.00 0.00 77 1027.3
20190320032017 37 0.0 0.0 0.00 0.00 0.00 76 1027.1
20190320031017 37 0.0 0.0 0.00 0.00 0.00 75 1027.1
20190320030017 38 0.0 0.0 0.00 0.00 0.00 73 1027.0
20190320025017 38 0.0 0.0 0.00 0.00 0.00 74 1026.9
20190320024017 39 0.0 0.0 0.00 0.00 0.00 72 1027.1
20190320023016 39 0.0 0.0 0.00 0.00 0.00 68 1027.2
20190320022017 39 0.0 0.0 0.00 0.00 0.00 69 1027.2
20190320021015 40 0.0 0.0 0.00 0.00 0.00 66 1027.1
20190320020018 40 0.0 0.0 0.00 0.00 0.00 64 1027.1
20190320015016 41 0.0 0.0 0.00 0.00 0.00 65 1027.1
20190320014017 41 0.0 0.0 0.00 0.00 0.00 64 1027.2
20190320013016 42 0.0 0.0 0.00 0.00 0.00 59 1027.3
20190320012017 42 0.0 0.0 0.00 0.00 0.00 60 1027.2
20190320011017 43 0.0 0.0 0.00 0.00 0.00 58 1027.2
20190320010016 44 0.0 0.0 0.00 0.00 0.00 52 1027.1
20190320005016 45 0.0 0.0 0.00 0.00 0.00 50 1027.2
20190320004016 46 0.0 0.0 0.00 0.00 0.00 47 1027.2
20190320003016 46 0.0 0.0 0.00 0.00 0.00 46 1027.0
20190320002017 47 0.0 0.0 0.00 0.00 0.00 45 1027.0
20190320001016 48 0.0 0.0 0.00 0.00 0.00 44 1027.0
20190320000019 48 0.0 0.0 0.00 0.00 0.00 43 1026.9
20190319235016 49 0.0 0.0 0.00 0.00 0.00 41 1026.6
20190319234017 50 0.0 0.0 0.00 0.00 0.00 40 1026.6
20190319233017 50 0.0 0.0 0.00 0.00 0.00 39 1026.8
20190319232016 51 0.0 0.0 0.00 0.00 0.00 39 1026.8
20190319231017 51 0.0 0.0 0.00 0.00 0.00 37 1026.5
20190319230016 52 0.0 0.0 0.00 0.00 0.00 35 1026.6
20190319225016 53 0.0 0.0 0.00 0.00 0.00 36 1026.6
20190319224016 53 0.0 0.0 0.00 0.00 0.00 35 1026.5
20190319223016 54 0 1.0 3.0 0.00 0.00 0.00 34 1026.4
20190319222016 54 292 2.0 7.0 0.00 0.00 0.00 33 1026.4
20190319221016 54 292 1.0 3.0 0.00 0.00 0.00 33 1026.5
20190319220016 55 315 1.0 5.0 0.00 0.00 0.00 32 1026.6
20190319215016 55 315 2.0 4.0 0.00 0.00 0.00 34 1026.5
20190319214016 55 0 1.0 8.0 0.00 0.00 0.00 33 1026.4
20190319213016 55 315 2.0 6.0 0.00 0.00 0.00 33 1026.4
20190319212016 55 315 2.0 4.0 0.00 0.00 0.00 33 1026.4
20190319211016 55 247 1.0 3.0 0.00 0.00 0.00 32 1026.6
20190319210017 56 0.0 0.0 0.00 0.00 0.00 32 1026.7
20190319205016 56 0.0 0.0 0.00 0.00 0.00 32 1026.7
20190319204016 56 0.0 0.0 0.00 0.00 0.00 33 1026.6
20190319203016 56 0.0 0.0 0.00 0.00 0.00 34 1026.7
20190319202016 56 0.0 0.0 0.00 0.00 0.00 33 1026.8
20190319201016 56 0.0 0.0 0.00 0.00 0.00 35 1026.9
20190319200016 57 0.0 0.0 0.00 0.00 0.00 35 1027.2
20190319195016 56 0.0 0.0 0.00 0.00 0.00 35 1027.3
20190319194016 54 0.0 0.0 0.00 0.00 0.00 36 1027.3
20190319193016 56 0.0 0.0 0.00 0.00 0.00 37 1027.2
20190319192016 55 0.0 0.0 0.00 0.00 0.00 36 1027.2
20190319191016 55 0.0 0.0 0.00 0.00 0.00 36 1027.5
20190319190016 56 0.0 0.0 0.00 0.00 0.00 36 1027.5
20190319185016 54 0.0 0.0 0.00 0.00 0.00 38 1027.7
20190319184016 55 0.0 2.0 0.00 0.00 0.00 39 1027.9
20190319183016 54 0 2.0 4.0 0.00 0.00 0.00 36 1028.2
20190319182016 53 0.0 3.0 0.00 0.00 0.00 40 1028.4
20190319181016 54 0.0 0.0 0.00 0.00 0.00 38 1028.8
20190319180016 53 0.0 0.0 0.00 0.00 0.00 40 1029.0
20190319175016 53 247 1.0 4.0 0.00 0.00 0.00 40 1029.3
20190319174016 53 22 1.0 5.0 0.00 0.00 0.00 42 1030.0
20190319173016 53 22 2.0 4.0 0.00 0.00 0.00 41 1030.0
20190319172015 52 292 1.0 3.0 0.00 0.00 0.00 39 1030.2
20190319171016 52 0 1.0 3.0 0.00 0.00 0.00 41 1030.2
20190319170016 52 337 2.0 5.0 0.00 0.00 0.00 40 1030.3
20190319165017 51 292 1.0 4.0 0.00 0.00 0.00 43 1030.4
20190319164015 50 292 2.0 6.0 0.00 0.00 0.00 41 1030.7
20190319163015 50 22 2.0 6.0 0.00 0.00 0.00 43 1030.7
20190319162016 50 112 1.0 5.0 0.00 0.00 0.00 43 1030.5
20190319161016 51 22 1.0 5.0 0.00 0.00 0.00 45 1030.6
20190319160015 50 45 2.0 9.0 0.00 0.00 0.00 46 1030.6
20190319155015 50 0 2.0 6.0 0.00 0.00 0.00 49 1030.5
20190319154015 49 0 2.0 4.0 0.00 0.00 0.00 48 1030.6
20190319153016 48 0.0 0.0 0.00 0.00 0.00 51 1030.7
20190319152015 48 0 2.0 8.0 0.00 0.00 0.00 52 1030.7
20190319151016 48 315 2.0 7.0 0.00 0.00 0.00 55 1030.6